Year,Month,Day,Hour,Minute,Value (Times are PST for temperature in C)
2010,07,05,00,00,14.80
2010,07,05,00,01,14.80
2010,07,05,00,02,14.80
2010,07,05,00,03,14.80
2010,07,05,00,04,14.80
2010,07,05,00,05,14.80
2010,07,05,00,06,14.80
2010,07,05,00,07,14.80
2010,07,05,00,08,14.80
2010,07,05,00,09,14.80
2010,07,05,00,10,14.80
2010,07,05,00,11,14.80
2010,07,05,00,12,14.80
2010,07,05,00,13,14.80
2010,07,05,00,14,14.80
2010,07,05,00,15,14.80
2010,07,05,00,16,14.80
2010,07,05,00,17,14.80
2010,07,05,00,18,14.80
2010,07,05,00,19,14.80
2010,07,05,00,20,14.80
2010,07,05,00,21,14.80
2010,07,05,00,22,14.80
2010,07,05,00,23,14.80
2010,07,05,00,24,14.80
2010,07,05,00,25,14.80
2010,07,05,00,26,14.80
2010,07,05,00,27,14.80
2010,07,05,00,28,14.80
2010,07,05,00,29,14.80
2010,07,05,00,30,14.80
2010,07,05,00,31,14.80
2010,07,05,00,32,14.80
2010,07,05,00,33,14.70
2010,07,05,00,34,14.70
2010,07,05,00,35,14.70
2010,07,05,00,36,14.70
2010,07,05,00,37,14.70
2010,07,05,00,38,14.70
2010,07,05,00,39,14.70
2010,07,05,00,40,14.70
2010,07,05,00,41,14.70
2010,07,05,00,42,14.70
2010,07,05,00,43,14.60
2010,07,05,00,44,14.60
2010,07,05,00,45,14.60
2010,07,05,00,46,14.60
2010,07,05,00,47,14.60
2010,07,05,00,48,14.60
2010,07,05,00,49,14.60
2010,07,05,00,50,14.60
2010,07,05,00,51,14.50
2010,07,05,00,52,14.50
2010,07,05,00,53,14.50
2010,07,05,00,54,14.40
2010,07,05,00,55,14.40
2010,07,05,00,56,14.40
2010,07,05,00,57,14.40
2010,07,05,00,58,14.40
2010,07,05,00,59,14.30
2010,07,05,01,00,14.30
2010,07,05,01,01,14.30
2010,07,05,01,02,14.30
2010,07,05,01,03,14.30
2010,07,05,01,04,14.30
2010,07,05,01,05,14.20
2010,07,05,01,06,14.20
2010,07,05,01,07,14.20
2010,07,05,01,08,14.10
2010,07,05,01,09,14.10
2010,07,05,01,10,14.10
2010,07,05,01,11,14.10
2010,07,05,01,12,14.10
2010,07,05,01,13,14.10
2010,07,05,01,14,14.00
2010,07,05,01,15,14.00
2010,07,05,01,16,14.00
2010,07,05,01,17,14.00
2010,07,05,01,18,14.00
2010,07,05,01,19,14.00
2010,07,05,01,20,14.00
2010,07,05,01,21,14.00
2010,07,05,01,22,14.00
2010,07,05,01,23,13.90
2010,07,05,01,24,14.00
2010,07,05,01,25,13.90
2010,07,05,01,26,13.90
2010,07,05,01,27,13.90
2010,07,05,01,28,13.90
2010,07,05,01,29,13.90
2010,07,05,01,30,13.90
2010,07,05,01,31,13.90
2010,07,05,01,32,13.90
2010,07,05,01,33,13.90
2010,07,05,01,34,13.90
2010,07,05,01,35,13.90
2010,07,05,01,36,13.90
2010,07,05,01,37,13.90
2010,07,05,01,38,13.90
2010,07,05,01,39,13.90
2010,07,05,01,40,13.90
2010,07,05,01,41,13.90
2010,07,05,01,42,14.00
2010,07,05,01,43,14.00
2010,07,05,01,44,14.00
2010,07,05,01,45,14.00
2010,07,05,01,46,14.00
2010,07,05,01,47,14.00
2010,07,05,01,48,14.00
2010,07,05,01,49,14.10
2010,07,05,01,50,14.00
2010,07,05,01,51,14.10
2010,07,05,01,52,14.10
2010,07,05,01,53,14.10
2010,07,05,01,54,14.10
2010,07,05,01,55,14.10
2010,07,05,01,56,14.10
2010,07,05,01,57,14.10
2010,07,05,01,58,14.10
2010,07,05,01,59,14.10
2010,07,05,02,00,14.10
2010,07,05,02,01,14.10
2010,07,05,02,02,14.10
2010,07,05,02,03,14.00
2010,07,05,02,04,14.10
2010,07,05,02,05,14.10
2010,07,05,02,06,14.10
2010,07,05,02,07,14.10
2010,07,05,02,08,14.10
2010,07,05,02,09,14.10
2010,07,05,02,10,14.10
2010,07,05,02,11,14.10
2010,07,05,02,12,14.00
2010,07,05,02,13,14.00
2010,07,05,02,14,14.00
2010,07,05,02,15,14.00
2010,07,05,02,16,14.00
2010,07,05,02,17,14.00
2010,07,05,02,18,14.00
2010,07,05,02,19,14.00
2010,07,05,02,20,14.00
2010,07,05,02,21,13.90
2010,07,05,02,22,13.90
2010,07,05,02,23,13.90
2010,07,05,02,24,13.90
2010,07,05,02,25,13.90
2010,07,05,02,26,13.90
2010,07,05,02,27,13.90
2010,07,05,02,28,13.90
2010,07,05,02,29,13.90
2010,07,05,02,30,13.90
2010,07,05,02,31,14.00
2010,07,05,02,32,14.00
2010,07,05,02,33,14.00
2010,07,05,02,34,14.00
2010,07,05,02,35,14.00
2010,07,05,02,36,14.00
2010,07,05,02,37,14.00
2010,07,05,02,38,14.00
2010,07,05,02,39,14.00
2010,07,05,02,40,14.10
2010,07,05,02,41,14.10
2010,07,05,02,42,14.10
2010,07,05,02,43,14.10
2010,07,05,02,44,14.10
2010,07,05,02,45,14.10
2010,07,05,02,46,14.10
2010,07,05,02,47,14.10
2010,07,05,02,48,14.10
2010,07,05,02,49,14.10
2010,07,05,02,50,14.10
2010,07,05,02,51,14.10
2010,07,05,02,52,14.10
2010,07,05,02,53,14.10
2010,07,05,02,54,14.10
2010,07,05,02,55,14.10
2010,07,05,02,56,14.10
2010,07,05,02,57,14.10
2010,07,05,02,58,14.10
2010,07,05,02,59,14.10
2010,07,05,03,00,14.10
2010,07,05,03,01,14.10
2010,07,05,03,02,14.10
2010,07,05,03,03,14.10
2010,07,05,03,04,14.10
2010,07,05,03,05,14.10
2010,07,05,03,06,14.10
2010,07,05,03,07,14.10
2010,07,05,03,08,14.10
2010,07,05,03,09,14.00
2010,07,05,03,10,14.00
2010,07,05,03,11,14.00
2010,07,05,03,12,14.00
2010,07,05,03,13,14.00
2010,07,05,03,14,13.90
2010,07,05,03,15,13.90
2010,07,05,03,16,13.90
2010,07,05,03,17,13.90
2010,07,05,03,18,13.90
2010,07,05,03,19,13.90
2010,07,05,03,20,13.90
2010,07,05,03,21,13.90
2010,07,05,03,22,13.90
2010,07,05,03,23,13.90
2010,07,05,03,24,13.90
2010,07,05,03,25,13.90
2010,07,05,03,26,13.90
2010,07,05,03,27,13.90
2010,07,05,03,28,13.90
2010,07,05,03,29,13.90
2010,07,05,03,30,13.90
2010,07,05,03,31,13.90
2010,07,05,03,32,13.90
2010,07,05,03,33,13.90
2010,07,05,03,34,13.90
2010,07,05,03,35,13.90
2010,07,05,03,36,13.90
2010,07,05,03,37,13.90
2010,07,05,03,38,13.90
2010,07,05,03,39,13.90
2010,07,05,03,40,13.90
2010,07,05,03,41,13.90
2010,07,05,03,42,13.90
2010,07,05,03,43,13.90
2010,07,05,03,44,13.90
2010,07,05,03,45,13.90
2010,07,05,03,46,13.90
2010,07,05,03,47,13.90
2010,07,05,03,48,13.90
2010,07,05,03,49,13.90
2010,07,05,03,50,13.90
2010,07,05,03,51,13.90
2010,07,05,03,52,13.90
2010,07,05,03,53,13.90
2010,07,05,03,54,13.90
2010,07,05,03,55,13.90
2010,07,05,03,56,13.90
2010,07,05,03,57,13.90
2010,07,05,03,58,13.90
2010,07,05,03,59,13.90
2010,07,05,04,00,13.90
2010,07,05,04,01,13.90
2010,07,05,04,02,13.90
2010,07,05,04,03,13.90
2010,07,05,04,04,13.90
2010,07,05,04,05,13.90
2010,07,05,04,06,13.90
2010,07,05,04,07,13.90
2010,07,05,04,08,13.90
2010,07,05,04,09,13.90
2010,07,05,04,10,13.90
2010,07,05,04,11,13.90
2010,07,05,04,12,13.90
2010,07,05,04,13,13.90
2010,07,05,04,14,13.90
2010,07,05,04,15,13.90
2010,07,05,04,16,13.80
2010,07,05,04,17,13.90
2010,07,05,04,18,13.80
2010,07,05,04,19,13.80
2010,07,05,04,20,13.80
2010,07,05,04,21,13.80
2010,07,05,04,22,13.80
2010,07,05,04,23,13.80
2010,07,05,04,24,13.80
2010,07,05,04,25,13.80
2010,07,05,04,26,13.80
2010,07,05,04,27,13.80
2010,07,05,04,28,13.80
2010,07,05,04,29,13.80
2010,07,05,04,30,13.80
2010,07,05,04,31,13.80
2010,07,05,04,32,13.80
2010,07,05,04,33,13.80
2010,07,05,04,34,13.80
2010,07,05,04,35,13.80
2010,07,05,04,36,13.80
2010,07,05,04,37,13.80
2010,07,05,04,38,13.80
2010,07,05,04,39,13.70
2010,07,05,04,40,13.70
2010,07,05,04,41,13.70
2010,07,05,04,42,13.70
2010,07,05,04,43,13.70
2010,07,05,04,44,13.70
2010,07,05,04,45,13.60
2010,07,05,04,46,13.60
2010,07,05,04,47,13.60
2010,07,05,04,48,13.60
2010,07,05,04,49,13.60
2010,07,05,04,50,13.60
2010,07,05,04,51,13.60
2010,07,05,04,52,13.50
2010,07,05,04,53,13.50
2010,07,05,04,54,13.50
2010,07,05,04,55,13.50
2010,07,05,04,56,13.50
2010,07,05,04,57,13.40
2010,07,05,04,58,13.40
2010,07,05,04,59,13.40
2010,07,05,05,00,13.40
2010,07,05,05,01,13.40
2010,07,05,05,02,13.40
2010,07,05,05,03,13.40
2010,07,05,05,04,13.30
2010,07,05,05,05,13.30
2010,07,05,05,06,13.30
2010,07,05,05,07,13.30
2010,07,05,05,08,13.30
2010,07,05,05,09,13.30
2010,07,05,05,10,13.30
2010,07,05,05,11,13.30
2010,07,05,05,12,13.30
2010,07,05,05,13,13.30
2010,07,05,05,14,13.30
2010,07,05,05,15,13.30
2010,07,05,05,16,13.30
2010,07,05,05,17,13.30
2010,07,05,05,18,13.30
2010,07,05,05,19,13.30
2010,07,05,05,20,13.30
2010,07,05,05,21,13.30
2010,07,05,05,22,13.30
2010,07,05,05,23,13.20
2010,07,05,05,24,13.20
2010,07,05,05,25,13.20
2010,07,05,05,26,13.20
2010,07,05,05,27,13.20
2010,07,05,05,28,13.20
2010,07,05,05,29,13.10
2010,07,05,05,30,13.10
2010,07,05,05,31,13.10
2010,07,05,05,32,13.10
2010,07,05,05,33,13.10
2010,07,05,05,34,13.10
2010,07,05,05,35,13.10
2010,07,05,05,36,13.10
2010,07,05,05,37,13.10
2010,07,05,05,38,13.10
2010,07,05,05,39,13.10
2010,07,05,05,40,13.10
2010,07,05,05,41,13.10
2010,07,05,05,42,13.10
2010,07,05,05,43,13.10
2010,07,05,05,44,13.10
2010,07,05,05,45,13.10
2010,07,05,05,46,13.10
2010,07,05,05,47,13.10
2010,07,05,05,48,13.10
2010,07,05,05,49,13.10
2010,07,05,05,50,13.10
2010,07,05,05,51,13.10
2010,07,05,05,52,13.00
2010,07,05,05,53,13.00
2010,07,05,05,54,13.00
2010,07,05,05,55,13.00
2010,07,05,05,56,12.90
2010,07,05,05,57,12.90
2010,07,05,05,58,12.90
2010,07,05,05,59,12.90
2010,07,05,06,00,12.90
2010,07,05,06,01,12.90
2010,07,05,06,02,12.90
2010,07,05,06,03,12.90
2010,07,05,06,04,12.90
2010,07,05,06,05,12.90
2010,07,05,06,06,12.90
2010,07,05,06,07,12.90
2010,07,05,06,08,12.90
2010,07,05,06,09,12.90
2010,07,05,06,10,12.90
2010,07,05,06,11,12.90
2010,07,05,06,12,12.90
2010,07,05,06,13,12.90
2010,07,05,06,14,12.90
2010,07,05,06,15,12.90
2010,07,05,06,16,12.90
2010,07,05,06,17,12.90
2010,07,05,06,18,12.90
2010,07,05,06,19,12.90
2010,07,05,06,20,12.90
2010,07,05,06,21,12.90
2010,07,05,06,22,12.90
2010,07,05,06,23,12.90
2010,07,05,06,24,12.90
2010,07,05,06,25,13.00
2010,07,05,06,26,13.00
2010,07,05,06,27,13.00
2010,07,05,06,28,13.00
2010,07,05,06,29,13.10
2010,07,05,06,30,13.10
2010,07,05,06,31,13.10
2010,07,05,06,32,13.10
2010,07,05,06,33,13.10
2010,07,05,06,34,13.10
2010,07,05,06,35,13.20
2010,07,05,06,36,13.20
2010,07,05,06,37,13.20
2010,07,05,06,38,13.20
2010,07,05,06,39,13.20
2010,07,05,06,40,13.20
2010,07,05,06,41,13.20
2010,07,05,06,42,13.20
2010,07,05,06,43,13.20
2010,07,05,06,44,13.20
2010,07,05,06,45,13.20
2010,07,05,06,46,13.20
2010,07,05,06,47,13.20
2010,07,05,06,48,13.20
2010,07,05,06,49,13.20
2010,07,05,06,50,13.20
2010,07,05,06,51,13.20
2010,07,05,06,52,13.20
2010,07,05,06,53,13.20
2010,07,05,06,54,13.20
2010,07,05,06,55,13.20
2010,07,05,06,56,13.20
2010,07,05,06,57,13.20
2010,07,05,06,58,13.20
2010,07,05,06,59,13.20
2010,07,05,07,00,13.20
2010,07,05,07,01,13.20
2010,07,05,07,02,13.20
2010,07,05,07,03,13.10
2010,07,05,07,04,13.10
2010,07,05,07,05,13.10
2010,07,05,07,06,13.10
2010,07,05,07,07,13.10
2010,07,05,07,08,13.10
2010,07,05,07,09,13.10
2010,07,05,07,10,13.10
2010,07,05,07,11,13.10
2010,07,05,07,12,13.10
2010,07,05,07,13,13.10
2010,07,05,07,14,13.10
2010,07,05,07,15,13.10
2010,07,05,07,16,13.10
2010,07,05,07,17,13.10
2010,07,05,07,18,13.10
2010,07,05,07,19,13.10
2010,07,05,07,20,13.10
2010,07,05,07,21,13.10
2010,07,05,07,22,13.10
2010,07,05,07,23,13.10
2010,07,05,07,24,13.10
2010,07,05,07,25,13.10
2010,07,05,07,26,13.10
2010,07,05,07,27,13.10
2010,07,05,07,28,13.10
2010,07,05,07,29,13.10
2010,07,05,07,30,13.10
2010,07,05,07,31,13.10
2010,07,05,07,32,13.10
2010,07,05,07,33,13.10
2010,07,05,07,34,13.10
2010,07,05,07,35,13.10
2010,07,05,07,36,13.10
2010,07,05,07,37,13.10
2010,07,05,07,38,13.10
2010,07,05,07,39,13.10
2010,07,05,07,40,13.10
2010,07,05,07,41,13.10
2010,07,05,07,42,13.10
2010,07,05,07,43,13.10
2010,07,05,07,44,13.10
2010,07,05,07,45,13.10
2010,07,05,07,46,13.10
2010,07,05,07,47,13.00
2010,07,05,07,48,13.00
2010,07,05,07,49,13.00
2010,07,05,07,50,13.00
2010,07,05,07,51,13.00
2010,07,05,07,52,13.00
2010,07,05,07,53,13.00
2010,07,05,07,54,13.00
2010,07,05,07,55,13.00
2010,07,05,07,56,13.00
2010,07,05,07,57,13.00
2010,07,05,07,58,13.00
2010,07,05,07,59,13.00
2010,07,05,08,00,13.00
2010,07,05,08,01,13.00
2010,07,05,08,02,13.00
2010,07,05,08,03,13.00
2010,07,05,08,04,13.00
2010,07,05,08,05,13.00
2010,07,05,08,06,13.00
2010,07,05,08,07,13.00
2010,07,05,08,08,13.00
2010,07,05,08,09,13.00
2010,07,05,08,10,13.10
2010,07,05,08,11,13.10
2010,07,05,08,12,13.10
2010,07,05,08,13,13.10
2010,07,05,08,14,13.10
2010,07,05,08,15,13.10
2010,07,05,08,16,13.10
2010,07,05,08,17,13.10
2010,07,05,08,18,13.10
2010,07,05,08,19,13.10
2010,07,05,08,20,13.10
2010,07,05,08,21,13.10
2010,07,05,08,22,13.20
2010,07,05,08,23,13.20
2010,07,05,08,24,13.20
2010,07,05,08,25,13.20
2010,07,05,08,26,13.20
2010,07,05,08,27,13.20
2010,07,05,08,28,13.20
2010,07,05,08,29,13.20
2010,07,05,08,30,13.20
2010,07,05,08,31,13.30
2010,07,05,08,32,13.30
2010,07,05,08,33,13.30
2010,07,05,08,34,13.30
2010,07,05,08,35,13.30
2010,07,05,08,36,13.30
2010,07,05,08,37,13.30
2010,07,05,08,38,13.40
2010,07,05,08,39,13.40
2010,07,05,08,40,13.40
2010,07,05,08,41,13.40
2010,07,05,08,42,13.40
2010,07,05,08,43,13.50
2010,07,05,08,44,13.50
2010,07,05,08,45,13.50
2010,07,05,08,46,13.50
2010,07,05,08,47,13.50
2010,07,05,08,48,13.60
2010,07,05,08,49,13.60
2010,07,05,08,50,13.60
2010,07,05,08,51,13.60
2010,07,05,08,52,13.70
2010,07,05,08,53,13.70
2010,07,05,08,54,13.70
2010,07,05,08,55,13.70
2010,07,05,08,56,13.80
2010,07,05,08,57,13.80
2010,07,05,08,58,13.80
2010,07,05,08,59,13.80
2010,07,05,09,00,13.90
2010,07,05,09,01,13.90
2010,07,05,09,02,13.90
2010,07,05,09,03,13.90
2010,07,05,09,04,13.90
2010,07,05,09,05,14.00
2010,07,05,09,06,14.00
2010,07,05,09,07,14.00
2010,07,05,09,08,14.00
2010,07,05,09,09,14.10
2010,07,05,09,10,14.10
2010,07,05,09,11,14.10
2010,07,05,09,12,14.10
2010,07,05,09,13,14.10
2010,07,05,09,14,14.10
2010,07,05,09,15,14.20
2010,07,05,09,16,14.20
2010,07,05,09,17,14.20
2010,07,05,09,18,14.20
2010,07,05,09,19,14.20
2010,07,05,09,20,14.20
2010,07,05,09,21,14.20
2010,07,05,09,22,14.20
2010,07,05,09,23,14.20
2010,07,05,09,24,14.20
2010,07,05,09,25,14.20
2010,07,05,09,26,14.20
2010,07,05,09,27,14.20
2010,07,05,09,28,14.20
2010,07,05,09,29,14.20
2010,07,05,09,30,14.20
2010,07,05,09,31,14.20
2010,07,05,09,32,14.20
2010,07,05,09,33,14.20
2010,07,05,09,34,14.10
2010,07,05,09,35,14.10
2010,07,05,09,36,14.10
2010,07,05,09,37,14.10
2010,07,05,09,38,14.10
2010,07,05,09,39,14.10
2010,07,05,09,40,14.10
2010,07,05,09,41,14.20
2010,07,05,09,42,14.20
2010,07,05,09,43,14.20
2010,07,05,09,44,14.20
2010,07,05,09,45,14.20
2010,07,05,09,46,14.30
2010,07,05,09,47,14.30
2010,07,05,09,48,14.30
2010,07,05,09,49,14.30
2010,07,05,09,50,14.30
2010,07,05,09,51,14.40
2010,07,05,09,52,14.40
2010,07,05,09,53,14.40
2010,07,05,09,54,14.40
2010,07,05,09,55,14.40
2010,07,05,09,56,14.40
2010,07,05,09,57,14.50
2010,07,05,09,58,14.50
2010,07,05,09,59,14.50
2010,07,05,10,00,14.50
2010,07,05,10,01,14.50
2010,07,05,10,02,14.50
2010,07,05,10,03,14.50
2010,07,05,10,04,14.50
2010,07,05,10,05,14.40
2010,07,05,10,06,14.40
2010,07,05,10,07,14.40
2010,07,05,10,08,14.40
2010,07,05,10,09,14.40
2010,07,05,10,10,14.50
2010,07,05,10,11,14.50
2010,07,05,10,12,14.60
2010,07,05,10,13,14.60
2010,07,05,10,14,14.60
2010,07,05,10,15,14.70
2010,07,05,10,16,14.70
2010,07,05,10,17,14.70
2010,07,05,10,18,14.70
2010,07,05,10,19,14.80
2010,07,05,10,20,14.80
2010,07,05,10,21,14.80
2010,07,05,10,22,14.80
2010,07,05,10,23,14.80
2010,07,05,10,24,14.80
2010,07,05,10,25,14.80
2010,07,05,10,26,14.80
2010,07,05,10,27,14.80
2010,07,05,10,28,14.80
2010,07,05,10,29,14.80
2010,07,05,10,30,14.80
2010,07,05,10,31,14.90
2010,07,05,10,32,14.90
2010,07,05,10,33,14.90
2010,07,05,10,34,14.90
2010,07,05,10,35,14.90
2010,07,05,10,36,15.00
2010,07,05,10,37,14.90
2010,07,05,10,38,14.90
2010,07,05,10,39,14.90
2010,07,05,10,40,15.00
2010,07,05,10,41,15.00
2010,07,05,10,42,15.00
2010,07,05,10,43,15.00
2010,07,05,10,44,15.00
2010,07,05,10,45,15.00
2010,07,05,10,46,15.10
2010,07,05,10,47,15.10
2010,07,05,10,48,15.10
2010,07,05,10,49,15.10
2010,07,05,10,50,15.10
2010,07,05,10,51,15.10
2010,07,05,10,52,15.10
2010,07,05,10,53,15.20
2010,07,05,10,54,15.20
2010,07,05,10,55,15.20
2010,07,05,10,56,15.20
2010,07,05,10,57,15.20
2010,07,05,10,58,15.30
2010,07,05,10,59,15.30
2010,07,05,11,00,15.30
2010,07,05,11,01,15.30
2010,07,05,11,02,15.30
2010,07,05,11,03,15.30
2010,07,05,11,04,15.30
2010,07,05,11,05,15.30
2010,07,05,11,06,15.40
2010,07,05,11,07,15.40
2010,07,05,11,08,15.40
2010,07,05,11,09,15.50
2010,07,05,11,10,15.50
2010,07,05,11,11,15.60
2010,07,05,11,12,15.70
2010,07,05,11,13,15.70
2010,07,05,11,14,15.70
2010,07,05,11,15,15.80
2010,07,05,11,16,15.80
2010,07,05,11,17,15.70
2010,07,05,11,18,15.70
2010,07,05,11,19,15.70
2010,07,05,11,20,15.80
2010,07,05,11,21,15.80
2010,07,05,11,22,15.90
2010,07,05,11,23,15.90
2010,07,05,11,24,16.00
2010,07,05,11,25,16.10
2010,07,05,11,26,16.20
2010,07,05,11,27,16.20
2010,07,05,11,28,16.30
2010,07,05,11,29,16.30
2010,07,05,11,30,16.30
2010,07,05,11,31,16.30
2010,07,05,11,32,16.20
2010,07,05,11,33,16.20
2010,07,05,11,34,16.10
2010,07,05,11,35,16.10
2010,07,05,11,36,16.00
2010,07,05,11,37,16.00
2010,07,05,11,38,15.90
2010,07,05,11,39,15.90
2010,07,05,11,40,15.80
2010,07,05,11,41,15.80
2010,07,05,11,42,15.80
2010,07,05,11,43,15.70
2010,07,05,11,44,15.70
2010,07,05,11,45,15.60
2010,07,05,11,46,15.60
2010,07,05,11,47,15.50
2010,07,05,11,48,15.50
2010,07,05,11,49,15.50
2010,07,05,11,50,15.50
2010,07,05,11,51,15.60
2010,07,05,11,52,15.60
2010,07,05,11,53,15.60
2010,07,05,11,54,15.70
2010,07,05,11,55,15.70
2010,07,05,11,56,15.80
2010,07,05,11,57,15.80
2010,07,05,11,58,15.80
2010,07,05,11,59,15.90
2010,07,05,12,00,15.90
2010,07,05,12,01,15.90
2010,07,05,12,02,16.00
2010,07,05,12,03,16.00
2010,07,05,12,04,16.00
2010,07,05,12,05,16.10
2010,07,05,12,06,16.10
2010,07,05,12,07,16.10
2010,07,05,12,08,16.10
2010,07,05,12,09,16.20
2010,07,05,12,10,16.20
2010,07,05,12,11,16.20
2010,07,05,12,12,16.30
2010,07,05,12,13,16.30
2010,07,05,12,14,16.30
2010,07,05,12,15,16.40
2010,07,05,12,16,16.40
2010,07,05,12,17,16.40
2010,07,05,12,18,16.50
2010,07,05,12,19,16.40
2010,07,05,12,20,16.40
2010,07,05,12,21,16.40
2010,07,05,12,22,16.40
2010,07,05,12,23,16.40
2010,07,05,12,24,16.40
2010,07,05,12,25,16.40
2010,07,05,12,26,16.30
2010,07,05,12,27,16.40
2010,07,05,12,28,16.40
2010,07,05,12,29,16.30
2010,07,05,12,30,16.40
2010,07,05,12,31,16.40
2010,07,05,12,32,16.40
2010,07,05,12,33,16.40
2010,07,05,12,34,16.20
2010,07,05,12,35,16.10
2010,07,05,12,36,15.90
2010,07,05,12,37,15.80
2010,07,05,12,38,15.70
2010,07,05,12,39,15.70
2010,07,05,12,40,15.60
2010,07,05,12,41,15.60
2010,07,05,12,42,15.60
2010,07,05,12,43,15.60
2010,07,05,12,44,15.60
2010,07,05,12,45,15.60
2010,07,05,12,46,15.50
2010,07,05,12,47,15.60
2010,07,05,12,48,15.60
2010,07,05,12,49,15.60
2010,07,05,12,50,15.70
2010,07,05,12,51,15.70
2010,07,05,12,52,15.80
2010,07,05,12,53,15.90
2010,07,05,12,54,15.90
2010,07,05,12,55,16.00
2010,07,05,12,56,16.00
2010,07,05,12,57,16.10
2010,07,05,12,58,16.20
2010,07,05,12,59,16.30
2010,07,05,13,00,16.30
2010,07,05,13,01,16.40
2010,07,05,13,02,16.50
2010,07,05,13,03,16.60
2010,07,05,13,04,16.70
2010,07,05,13,05,16.80
2010,07,05,13,06,16.80
2010,07,05,13,07,16.90
2010,07,05,13,08,16.90
2010,07,05,13,09,17.00
2010,07,05,13,10,17.00
2010,07,05,13,11,17.10
2010,07,05,13,12,17.20
2010,07,05,13,13,17.20
2010,07,05,13,14,17.20
2010,07,05,13,15,17.20
2010,07,05,13,16,17.20
2010,07,05,13,17,17.20
2010,07,05,13,18,17.20
2010,07,05,13,19,17.20
2010,07,05,13,20,17.20
2010,07,05,13,21,17.10
2010,07,05,13,22,17.10
2010,07,05,13,23,17.10
2010,07,05,13,24,17.10
2010,07,05,13,25,17.10
2010,07,05,13,26,17.00
2010,07,05,13,27,17.00
2010,07,05,13,28,17.00
2010,07,05,13,29,17.00
2010,07,05,13,30,17.00
2010,07,05,13,31,16.90
2010,07,05,13,32,16.90
2010,07,05,13,33,16.90
2010,07,05,13,34,16.90
2010,07,05,13,35,17.00
2010,07,05,13,36,17.00
2010,07,05,13,37,17.10
2010,07,05,13,38,17.20
2010,07,05,13,39,17.20
2010,07,05,13,40,17.30
2010,07,05,13,41,17.30
2010,07,05,13,42,17.30
2010,07,05,13,43,17.30
2010,07,05,13,44,17.30
2010,07,05,13,45,17.30
2010,07,05,13,46,17.30
2010,07,05,13,47,17.30
2010,07,05,13,48,17.30
2010,07,05,13,49,17.20
2010,07,05,13,50,17.10
2010,07,05,13,51,17.00
2010,07,05,13,52,17.00
2010,07,05,13,53,16.90
2010,07,05,13,54,16.90
2010,07,05,13,55,16.80
2010,07,05,13,56,16.80
2010,07,05,13,57,16.70
2010,07,05,13,58,16.70
2010,07,05,13,59,16.70
2010,07,05,14,00,16.70
2010,07,05,14,01,16.80
2010,07,05,14,02,16.80
2010,07,05,14,03,16.80
2010,07,05,14,04,16.80
2010,07,05,14,05,16.80
2010,07,05,14,06,16.80
2010,07,05,14,07,16.90
2010,07,05,14,08,17.00
2010,07,05,14,09,17.00
2010,07,05,14,10,17.00
2010,07,05,14,11,17.10
2010,07,05,14,12,17.10
2010,07,05,14,13,17.10
2010,07,05,14,14,17.00
2010,07,05,14,15,17.10
2010,07,05,14,16,17.10
2010,07,05,14,17,17.20
2010,07,05,14,18,17.20
2010,07,05,14,19,17.20
2010,07,05,14,20,17.20
2010,07,05,14,21,17.30
2010,07,05,14,22,17.30
2010,07,05,14,23,17.30
2010,07,05,14,24,17.20
2010,07,05,14,25,17.20
2010,07,05,14,26,17.20
2010,07,05,14,27,17.10
2010,07,05,14,28,17.10
2010,07,05,14,29,17.10
2010,07,05,14,30,17.10
2010,07,05,14,31,17.10
2010,07,05,14,32,17.20
2010,07,05,14,33,17.20
2010,07,05,14,34,17.30
2010,07,05,14,35,17.40
2010,07,05,14,36,17.40
2010,07,05,14,37,17.40
2010,07,05,14,38,17.50
2010,07,05,14,39,17.50
2010,07,05,14,40,17.50
2010,07,05,14,41,17.50
2010,07,05,14,42,17.60
2010,07,05,14,43,17.70
2010,07,05,14,44,17.80
2010,07,05,14,45,17.90
2010,07,05,14,46,18.00
2010,07,05,14,47,18.10
2010,07,05,14,48,18.30
2010,07,05,14,49,18.40
2010,07,05,14,50,18.40
2010,07,05,14,51,18.40
2010,07,05,14,52,18.30
2010,07,05,14,53,18.30
2010,07,05,14,54,18.20
2010,07,05,14,55,18.20
2010,07,05,14,56,18.10
2010,07,05,14,57,18.00
2010,07,05,14,58,17.90
2010,07,05,14,59,17.70
2010,07,05,15,00,17.60
2010,07,05,15,01,17.60
2010,07,05,15,02,17.60
2010,07,05,15,03,17.60
2010,07,05,15,04,17.70
2010,07,05,15,05,17.70
2010,07,05,15,06,17.70
2010,07,05,15,07,17.70
2010,07,05,15,08,17.70
2010,07,05,15,09,17.80
2010,07,05,15,10,17.80
2010,07,05,15,11,17.80
2010,07,05,15,12,17.80
2010,07,05,15,13,17.80
2010,07,05,15,14,17.80
2010,07,05,15,15,17.80
2010,07,05,15,16,17.80
2010,07,05,15,17,17.80
2010,07,05,15,18,17.80
2010,07,05,15,19,17.80
2010,07,05,15,20,17.80
2010,07,05,15,21,17.80
2010,07,05,15,22,17.80
2010,07,05,15,23,17.80
2010,07,05,15,24,17.80
2010,07,05,15,25,17.80
2010,07,05,15,26,17.80
2010,07,05,15,27,17.80
2010,07,05,15,28,17.90
2010,07,05,15,29,17.90
2010,07,05,15,30,17.90
2010,07,05,15,31,17.90
2010,07,05,15,32,17.90
2010,07,05,15,33,17.90
2010,07,05,15,34,17.90
2010,07,05,15,35,17.90
2010,07,05,15,36,17.90
2010,07,05,15,37,17.90
2010,07,05,15,38,17.90
2010,07,05,15,39,17.90
2010,07,05,15,40,17.90
2010,07,05,15,41,18.00
2010,07,05,15,42,18.10
2010,07,05,15,43,18.00
2010,07,05,15,44,18.00
2010,07,05,15,45,18.00
2010,07,05,15,46,18.00
2010,07,05,15,47,18.00
2010,07,05,15,48,18.00
2010,07,05,15,49,17.90
2010,07,05,15,50,18.00
2010,07,05,15,51,18.00
2010,07,05,15,52,18.10
2010,07,05,15,53,18.20
2010,07,05,15,54,18.30
2010,07,05,15,55,18.30
2010,07,05,15,56,18.30
2010,07,05,15,57,18.30
2010,07,05,15,58,18.20
2010,07,05,15,59,18.10
2010,07,05,16,00,18.10
2010,07,05,16,01,18.00
2010,07,05,16,02,18.00
2010,07,05,16,03,18.10
2010,07,05,16,04,18.20
2010,07,05,16,05,18.30
2010,07,05,16,06,18.40
2010,07,05,16,07,18.40
2010,07,05,16,08,18.30
2010,07,05,16,09,18.30
2010,07,05,16,10,18.30
2010,07,05,16,11,18.20
2010,07,05,16,12,18.20
2010,07,05,16,13,18.30
2010,07,05,16,14,18.30
2010,07,05,16,15,18.40
2010,07,05,16,16,18.50
2010,07,05,16,17,18.60
2010,07,05,16,18,18.70
2010,07,05,16,19,18.80
2010,07,05,16,20,18.80
2010,07,05,16,21,18.90
2010,07,05,16,22,19.00
2010,07,05,16,23,19.00
2010,07,05,16,24,19.10
2010,07,05,16,25,19.20
2010,07,05,16,26,19.20
2010,07,05,16,27,19.30
2010,07,05,16,28,19.30
2010,07,05,16,29,19.30
2010,07,05,16,30,19.40
2010,07,05,16,31,19.40
2010,07,05,16,32,19.40
2010,07,05,16,33,19.40
2010,07,05,16,34,19.50
2010,07,05,16,35,19.50
2010,07,05,16,36,19.50
2010,07,05,16,37,19.40
2010,07,05,16,38,19.40
2010,07,05,16,39,19.30
2010,07,05,16,40,19.10
2010,07,05,16,41,18.90
2010,07,05,16,42,18.70
2010,07,05,16,43,18.60
2010,07,05,16,44,18.50
2010,07,05,16,45,18.40
2010,07,05,16,46,18.30
2010,07,05,16,47,18.30
2010,07,05,16,48,18.30
2010,07,05,16,49,18.20
2010,07,05,16,50,18.20
2010,07,05,16,51,18.20
2010,07,05,16,52,18.20
2010,07,05,16,53,18.30
2010,07,05,16,54,18.40
2010,07,05,16,55,18.40
2010,07,05,16,56,18.40
2010,07,05,16,57,18.50
2010,07,05,16,58,18.50
2010,07,05,16,59,18.60
2010,07,05,17,00,18.60
2010,07,05,17,01,18.70
2010,07,05,17,02,18.70
2010,07,05,17,03,18.70
2010,07,05,17,04,18.70
2010,07,05,17,05,18.70
2010,07,05,17,06,18.70
2010,07,05,17,07,18.70
2010,07,05,17,08,18.70
2010,07,05,17,09,18.70
2010,07,05,17,10,18.80
2010,07,05,17,11,18.90
2010,07,05,17,12,18.90
2010,07,05,17,13,19.00
2010,07,05,17,14,19.10
2010,07,05,17,15,19.10
2010,07,05,17,16,19.20
2010,07,05,17,17,19.20
2010,07,05,17,18,19.30
2010,07,05,17,19,19.30